Tracking 23610 objects as of 19-Sep-2021
HD Live streaming from Space Station
objects crossing your sky now

DMSP 5D-2 F13 DEB

Track DMSP 5D-2 F13 DEB now!
10-day predictions


NORAD ID: 40398
Int'l Code: 1995-015K
Perigee: 840.0 km
Apogee: 850.8 km
Inclination: 98.8 °
Period: 101.7 minutes
Semi major axis: 7216 km
RCS: Unknown
Launch date: March 24, 1995
Source: United States (US)
Launch site: AIR FORCE WESTERN TEST RANGE (AFWTR)

Note: This is SATELLITE DEBRIS
aabbcc
Your satellite tracking list
Your tracking list is empty




NASA's NSSDC Master Catalog

Two Line Element Set (TLE):
1 40398U 95015K   21261.45142066  .00000031  00000-0  38187-4 0  9999
2 40398  98.8212 265.3414 0007483  57.7815 302.4084 14.16183210339199
Source of the keplerian elements: AFSPC